Regional Weather Roundup
Issued by NWS

Home | Current Version | Previous Version | Text Only | Print | Product List | Glossary Off
Versions: 1 2 3 4 5 6 7 8 9 10 11 12 13 14 15 16 17 18 19 20 21 22 23 24 25 26 27 28 29 30 31 32 33 34 35 36 37 38 39 40 41 42 43 44 45 46 47 48 49 50

000
ASUS43 KFSD 180302
RWRSD

WEATHER ROUNDUP FOR SOUTH DAKOTA
NATIONAL WEATHER SERVICE SIOUX FALLS SD
1000 PM CDT WED SEP 17 2014

NOTE: "FAIR" INDICATES FEW OR NO CLOUDS BELOW 12,000 FEET WITH NO
SIGNIFICANT WEATHER AND/OR OBSTRUCTIONS TO VISIBILITY.


SDZ001>005-009-010-012>017-180400-
NORTHWEST AND NORTH CENTRAL SOUTH DAKOTA

CITY           SKY/WX    TMP DP  RH WIND       PRES   REMARKS
FAITH            N/A     62  46  55 SE15      29.95S
MOBRIDGE       CLEAR     58  49  72 E12       29.95R
$$

SDZ012>016-024>037-041>051-057-063-072>074-180400-
SOUTHWEST AND SOUTH CENTRAL SOUTH DAKOTA

CITY           SKY/WX    TMP DP  RH WIND       PRES   REMARKS
RAPID CTY ARPT CLEAR     64  51  62 E8        29.98R
PIERRE         MOCLDY    63  45  51 E15       29.93F
CUSTER         CLEAR     59  48  67 NE8       30.09R
ELLSWORTH AFB  CLEAR     63  52  68 SE12      29.97R
PHILIP         MOCLDY    65  54  67 E10       29.95R
PINE RIDGE     CLEAR     63  54  72 E9        29.94R
WINNER         FAIR      65  57  75 E9        29.96S
$$

SDZ004>011-016>023-039-040-180400-
NORTHEAST SOUTH DAKOTA

CITY           SKY/WX    TMP DP  RH WIND       PRES   REMARKS
ABERDEEN       PTCLDY    50  47  89 NE6       30.00R
WATERTOWN      PTCLDY    58  50  75 CALM      30.00R
SISSETON         N/A     52  50  93 N3        29.99R
$$

SDZ017-020-022-023-036>040-048>070-180400-
SOUTHEAST SOUTH DAKOTA

CITY           SKY/WX    TMP DP  RH WIND       PRES   REMARKS
SIOUX FALLS    MOCLDY    59  55  87 CALM      29.98R
HURON          CLOUDY    60  53  77 NE3       29.98R
CHAMBERLAIN    CLOUDY    64  49  59 NE8       29.97S
MITCHELL       PTCLDY    60  55  83 E5        29.97R
YANKTON        CLEAR     64  55  72 N6        29.96R
$$

ABBREVIATIONS USED IN REMARKS
   TC - TEMPERATURE IN CELSIUS
  WCI - WIND CHILL INDEX
   HX - HEAT INDEX
  VSB - VISIBILITY




USA.gov is the U.S. government's official web portal to all federal, state and local government web resources and services.